User: anonymous   Login
Location: Unspecified
(0.0000°N, 0.0000°E)
Time: 18:05:15
(UTC+00:00)
Language:

STARLINK-35175 - Orbit

View from above orbital plane
View from above orbital plane
View from above satellite
View from above satellite

Ground track
Ground track

The orbit is defined by the following mean orbital elements,

1 65929U          26145.46902713 +.00000000 +00000-0 +37428-3 0 00001
2 65929  53.1589 169.0249 0001204  87.1604 272.9534 15.30194654    08
Epoch (UTC): 25 May 2026 11:15:23
Eccentricity: 0.0001204
inclination: 53.1589°
perigee height: 474 km
apogee height: 476 km
right ascension of ascending node: 169.0249°
argument of perigee: 87.1604°
revolutions per day: 15.30194654
mean anomaly at epoch: 272.9534°

The dashed part of the orbit path shows where the satellite is in the earth's shadow,  

DLR